Regional Weather Roundup
Issued by NWS Sioux Falls, SD

Home | Current Version | Previous Version | Graphics & Text | Print | Product List | Glossary On
Versions: 1 2 3 4 5 6 7 8 9 10 11 12 13 14 15 16 17 18 19 20 21 22 23 24 25 26 27 28 29 30 31 32 33 34 35 36 37 38 39 40 41 42 43 44 45 46 47 48 49 50
535
ASUS43 KFSD 240302
RWRFSD

WEATHER ROUNDUP FOR SE SOUTH DAKOTA/SW MINNESOTA/NW IOWA
NATIONAL WEATHER SERVICE SIOUX FALLS SD
1000 PM CDT MON OCT 23 2017

NOTE: "FAIR" INDICATES FEW OR NO CLOUDS BELOW 12,000 FEET WITH NO
SIGNIFICANT WEATHER AND OR OBSTRUCTIONS TO VISIBILITY.


SDZ038>040-050-052>070-240400-
SOUTHEAST SOUTH DAKOTA

CITY           SKY/WX    TMP DP  RH WIND       PRES   REMARKS
BROOKINGS      CLOUDY    48  35  60 N28G35    30.02F
CHAMBERLAIN    CLOUDY    54  31  42 NW15G26   30.21S
HURON          CLEAR     49  33  54 N26G41    30.13R
MADISON        MOCLDY    43  37  81 N23G41    30.06S
MITCHELL       CLOUDY    53  32  44 NW28G40   30.13R
SIOUX FALLS    MOCLDY    49  36  61 NW13G24   30.04S
WINNER         MOCLDY    50  28  42 NW16      30.25R
YANKTON        CLOUDY    50  35  56 W16       30.09S
$$

MNZ071-072-080-081-089-090-097-098-240400-
SOUTHWEST MINNESOTA

CITY           SKY/WX    TMP DP  RH WIND       PRES   REMARKS
FAIRMONT       CLEAR     46  31  55 NW17      29.92S
JACKSON        CLOUDY    46  32  57 NW16      29.95S
LUVERNE        PTCLDY    46  32  57 NW12G17   30.02S
MARSHALL       CLOUDY    49  36  61 NW21G29   29.98R
MONTEVIDEO     CLOUDY    48  36  61 N13       29.99R
PIPESTONE      PTCLDY    46  34  61 N16G26    30.01S
REDWOOD FALLS  MOCLDY    47  32  56 NW13G24   29.96R
TRACY          CLOUDY    49  38  65 NW20G25   29.98R
WORTHINGTON    CLOUDY    48  35  60 NW22G31   29.98S
$$

IAZ001>003-012>014-020>022-031-032-NEZ013-014-SDZ071-240400-
NORTHWEST IOWA

CITY           SKY/WX    TMP DP  RH WIND       PRES   REMARKS
CHEROKEE       PTCLDY    49  33  54 NW15G24   30.00R
DENISON        MOCLDY    50  34  53 NW12      30.02S
ESTHERVILLE    CLEAR     44  33  65 NW10      29.94R
LE MARS        MOCLDY    50  34  53 NW10      30.03S
ORANGE CITY    MOCLDY    52  36  54 NW16G24   30.01S
SHELDON        MOCLDY    48  34  57 NW16G26   29.98S
SIOUX CITY     PTCLDY    52  34  50 NW17G23   30.04R
SPENCER        PTCLDY    46  33  60 NW15      29.96S
STORM LAKE     PTCLDY    46  32  57 NW16G22   29.98S
$$

ABBREVIATIONS USED IN REMARKS
   TC - TEMPERATURE IN CELSIUS
  WCI - WIND CHILL INDEX
   HX - HEAT INDEX
  VSB - VISIBILITY





USA.gov is the U.S. government's official web portal to all federal, state and local government web resources and services.